Location: Quedlinburg
(51.7921°N, 11.1414°E)
Time: 13:07:55
(UTC+02:00)

RS-15 - Pass Details

Date: 13 March 2026
Orbit: 1893 x 2152 km, 64.8° (Epoch: 22 April)

Event Time Altitude Azimuth Distance (km) Brightness Sun altitude
Rises 02:57:05 0° 304° (WNW) 5,338 10.2 -31.8°
Reaches altitude 10° 03:00:29 10° 309° (NW) 4,365 9.8 -31.4°
Maximum altitude 03:11:29 53° 26° (NNE) 2,373 8.6 -30.2°
Drops below altitude 10° 03:22:58 10° 102° (ESE) 4,560 10.4 -28.8°
Sets 03:26:37 0° 107° (ESE) 5,590 10.9 -28.3°
